Погода в Гари

Погода в Гари : погода сейчас, прогноз погоды и архив. Всё, что Вы хотите узнать о погоде в Гари!

Поиск расширенной информации на нашем сайте:

Другие новости

Новости СМИ2

Главная страница сайта

Новости сайта

03.07.2017

Напоминаем, что на нашем специализированном сайте Метеоцентр.Азия вы можете получить высокодетализированные автоматические прогнозы погоды по пунктам России, СНГ и мира в авиационном формате (включающие направление и скорость ветра, видимость, явления погоды, количество и форму облачности, нижнюю и верхнюю границу облачности).


Погода в Гари - сегодня

Время (UTC), дата Ветер
(°,м/с) 
Видим.   Явления Облачность Т
(°С)
Тd
(°С)
f(%) Тe
(°С)
Pmin
(гПа)
dP
(гПа)
Po
(мм)
O2
(г/м3)
Тmin Tmax R s Состояние
почвы
18 21.02.18 330 (СЗ) 10 км    3/0 средняя 
[Ac trans]
-18.9 -22.2 75 -24  1013.5  0.3  747  325           
21 21.02.18 320 (СЗ) 10 км    ясно 
-21.1 -24.4 75 -26  1013.9  0.3  747  328           
00 22.02.18 320 (СЗ) 10 км    ясно 
-23.2 +25.7 100 +6  1014.4  0.2  747  320           
03 22.02.18 310 (СЗ) 20000 м    6/0 средняя 
[Ac trans]
-24.2 -26.7 80 -27  1014.5  0.1  747  332  -24.2      16  равномерный
сухой снег
100% 
06 22.02.18 320 (СЗ) 20000 м    ясно 
-22.8 -26.1 74 -27  1014.5  0.2  748  330  -24.8         
09 22.02.18 210 (ЮЗ) 20000 м    ясно 
-18.9 -23.8 65 -22  1014.2  0.1  747  325           
12 22.02.18 200 (Ю) 20000 м    ясно 
-17.8 -22.8 65 -18  1014.8  0.6  748  324           
18 22.02.18 010 (С) 10 км    ясно 
-21.5 -25.5 70 -24  1016.7  749  329           
21 22.02.18 350 (С) 10 км    ясно 
-22.8 -26.1 74 -26  1017.6  0.9  750  331           
00 23.02.18 350 (С) 10 км    ясно 
-25.3 -27.8 80 -26  1018.8  0.9  750  335           
03 23.02.18 010 (С) 20000 м    3/0 верхняя 
[Ci sp]
-25.2 -27.7 80 -28  1019.5  0.7  751  335  -25.5      16  равномерный
сухой снег
100% 
06 23.02.18 330 (СЗ) 20000 м    ясно 
-24 -27.2 75 -24  1019.9  0.5  751  334           
09 23.02.18 350 (С) 20000 м    ясно 
-19.2 -23.3 70 -19  1020.1  0.5  752  327           
12 23.02.18 тихо ()   20000 м    ясно 
-17.1 -23 60 -17  1020.1  0.2  752  325           
15 23.02.18 310 (СЗ) 10 км    ясно 
-19 -23.9 65 -19  1020.5  0.3  752  327    -16.4       
18 23.02.18 020 (С) 10 км    ясно 
-21.3 -25.3 70 -24  1021  0.2  752  330           
21 23.02.18 320 (СЗ) 10 км    ясно 
-23 -26.3 74 -26  1021  752  333           
00 24.02.18 360 (С) 10 км    ясно 
-25.4 -27.8 80 -30  1021.7  0.4  753  336           
06 24.02.18 тихо ()   20000 м    ясно 
-25.3 -27.8 80 -25  1022.2  0.4  753  336           
09 24.02.18 150 (ЮВ) 20000 м    ясно 
-20 -25.8 60 -20  1021.9  0.1  753  329           
12 24.02.18 200 (Ю) 20000 м    ясно 
-18.1 -24 60 -21  1021.7  753  327           
15 24.02.18 260 (З) 10 км    ясно 
-18.9 -23.8 65 -19  1022.1  0.4  753  328    -18.1       
18 24.02.18 050 (СВ) 10 км    ясно 
-20 -24.1 70 -23  1022.5  0.3  754  329           
21 24.02.18 тихо ()   10 км    ясно 
-21.6 -25.6 70 -22  1023.3  0.6  754  332           
00 25.02.18 210 (ЮЗ) 10 км    ясно 
-23.2 -28 65 -24  1024.6  1.1  755  334           
Время (UTC), дата Ветер
(°,м/с) 
Видим.   Явления Облачность Т
(°С)
Тd
(°С)
f(%) Тe
(°С)
Pmin
(гПа)
dP
(гПа)
Po
(мм)
O2
(г/м3)
Тmin Tmax R s Состояние
почвы

Для получения пояснительной информации подведите курсор к названию столбца.

ПОГОДА в Гари - архив

Всё, что Вы хотите узнать о погоде в Гари - удобно и подробно!

Выберите нужную дату (начиная с 1 января 2015* года) и нажмите кнопку "Найти".
Будут отображены архивные сводки погоды по пункту Гари, начиная с указанной даты.


Отображать данные в формате CSV (для использования в таблицах Excel)


Внимание! Наш архив погоды предназначен исключительно для личного некоммерческого использования в познавательных целях. Если Вам необходимы официальные справки о состоянии погоды (для производственных, юридических, коммерческих и т.п. целей), обращайтесь в органы Росгидромета.

*Примечание: данная дата относится к архиву по метеостанциям СССР (Россия, СНГ, Балтия).
Архив по метеостанциям Зарубежной Европы и Азии (кроме Китая) хранится 10 дней, по другим регионам земного шара (Китай, Африка, Америка, Австралия, Океания) - 1 день.

Гари - район местоположения метеостанции


Название, широта, долгота, высота метеостанции:
Гари 59.4°ш. 62.3°д. 131 м над ур. моря [Российская Федерация]

Дополнительная информация

В oтличие oт бoльшинства пoгoдных сайтoв мы публикуем пoдрoбную метеoинфoрмацию в детальнoм прoфессиoнальнoм фoрмате.

Характеристики температуры и влажнoсти вoздуха измеряются на высoте 2 м в тени вдали oт зданий и деревьев.
Скoрoсть ветра измеряется на высoте 10 м (на урoвне рoста челoвека скoрoсть ветра ниже в 1.5-2 раза). Если метеoстанция нахoдится в гoрoде или в лесу, тo скoрoсть ветра занижена на 2-4 м/с пo сравнению с oткрытым местoм. Скoрoсть ветра над акватoриями крупных рек и oзёр, а также на вершинах хoлмoв на 2-5 м/с выше, чем в oбычных услoвиях.
Атмoсфернoе давление в разных тoчках местнoсти мoжет значительнo oтличаться oт давления на метеoстанции, в зависимoсти oт услoвий рельефа (при пoдъёме на 10 м давление пoнижается примернo на 1 мм рт.ст.).